Location: Avon School (historical)
(37.7514°N, 90.2201°W)
Time: 03:45:50
(UTC+00:00)

Vanguard 2 Rocket - Pass Details

Date: 15 November 2024
Orbit: 554 x 3296 km, 32.9° (Epoch: 03 December)

Event Time Altitude Azimuth Distance (km) Brightness Sun altitude
Rises 09:13:57 0° 175° (S) 4,602 10.5 -41.0°
Reaches altitude 10° 09:19:25 10° 149° (SSE) 4,231 10.5 -39.9°
Maximum altitude 09:23:56 13° 126° (SE) 4,455 10.8 -39.0°
Drops below altitude 10° 09:29:15 10° 104° (ESE) 5,172 11.4 -38.0°
Sets 09:37:51 0° 82° (E) 6,794 12.3 -36.3°
